Location: Riverton
(43.0250°N, 108.3790°W)
Time: 05:14:21
(UTC-07:00)

Daily predictions for brighter satellites

Satellite Brightness Start Highest point End
(mag) Time Altitude Azimuth Time Altitude Azimuth Time Altitude Azimuth
Cosmos 2237 Rocket 4.5 03:39:35 17° NNE 03:39:35 17° NNE 03:40:52 10° NNE
Atlas Centaur 2 4.1 03:58:47 30° SSE 03:58:47 30° SSE 04:04:53 10° ESE
Lacrosse 5 rocket 3.9 03:59:41 21° E 03:59:41 21° E 04:01:59 10° ENE
SL-16 R/B 2.9 04:11:34 52° E 04:11:34 52° E 04:16:39 10° NNE
Cosmos 2123 Rocket 4.5 04:11:34 10° S 04:17:37 58° E 04:23:46 10° NNE
Cosmos 1725 Rocket 4.4 04:12:37 14° N 04:18:00 58° E 04:24:03 10° SSE
Cosmos 1503 Rocket 4.2 04:32:03 65° ENE 04:32:03 65° ENE 04:37:03 10° SSE
CZ-4B R/B 3.4 04:27:05 10° NNE 04:32:46 72° ESE 04:38:24 10° S
Cosmos 2369 Rocket 4.3 04:30:48 10° N 04:34:59 22° NE 04:39:14 10° E
Cosmos 2297 3.8 04:36:24 69° S 04:36:24 69° S 04:41:23 10° SSE
USA 229 DEB 3.8 04:36:41 50° NNW 04:38:49 85° NE 04:46:11 10° SE
USA 229 3.8 04:36:45 50° NNW 04:38:55 84° NE 04:46:16 10° SE
Cosmos 2016 Rocket 4.3 04:41:19 48° SSW 04:41:19 48° SSW 04:45:41 10° S
IRS-1C Rocket 4.2 04:37:23 10° NNE 04:42:40 75° ESE 04:47:54 10° S
Meteor 2-12 Rocket 4.3 04:40:49 14° N 04:46:05 87° ENE 04:52:09 10° S
Cosmos 1862 Rocket 4.5 04:50:04 40° S 04:50:04 40° S 04:52:55 10° S
Meteor 1-28 Rocket 4.3 04:50:17 10° SSE 04:52:45 39° SE 04:52:45 39° SE
PAYLOAD B 4.1 04:49:51 10° N 04:55:23 65° WNW 04:55:40 64° W
EO 1 Del DPAF 4.3 04:58:50 10° SE 05:02:29 44° ENE 05:04:46 20° N
Landsat 4 4.0 05:00:50 10° SSE 05:03:57 61° SSE 05:03:57 61° SSE
Celestis-02/Orion 38 4.4 05:02:05 10° SSE 05:07:16 80° WSW 05:09:07 41° NW
Cosmos 1864 Rocket 4.4 05:02:11 10° NNW 05:08:22 59° W 05:14:26 10° S
Okean 1-7 4.5 05:05:12 10° N 05:09:18 37° ENE 05:13:21 10° SE
Cosmos 1354 Rocket 3.9 05:08:59 55° WNW 05:09:39 60° WSW 05:14:46 10° S
Hubble Space Telescope 3.4 05:11:22 10° S 05:12:12 11° S 05:13:02 10° SSE
Cosmos 1943 Rocket 4.0 05:08:33 10° N 05:13:21 27° NE 05:18:07 10° ESE
CZ-4B DEB 4.5 05:12:45 10° N 05:18:00 44° WNW 05:19:13 38° W
USA 32 3.9 05:12:58 10° S 05:18:11 80° W 05:23:27 10° N
Cosmos 2237 Rocket 3.7 05:21:27 19° NNW 05:21:27 19° NNW 05:24:09 10° N
SKYMED 2 3.7 05:17:21 10° SSE 05:21:40 75° ENE 05:26:02 10° N
Abrixas rocket 3.6 05:22:19 28° NNE 05:22:19 28° NNE 05:24:49 10° ENE
Cosmos 1825 2.4 05:22:19 10° S 05:26:03 68° E 05:29:49 10° NNE
Cosmos 2233 Rocket 3.9 05:22:23 10° NNW 05:28:28 65° W 05:34:30 10° S
Cosmos 2333 Rocket 4.2 05:30:36 12° NNW 05:30:36 12° NNW 05:31:50 10° NNW
ATLAS 5 CENTAUR R/B 3.5 05:25:11 10° S 05:29:15 33° ESE 05:33:39 10° NE
Gbstr 26 Del rocket 4.2 05:29:01 25° NNW 05:29:39 26° N 05:33:05 10° NE
DELTA 2 R/B (1) 4.0 05:29:20 30° WSW 05:31:43 50° SSW 05:37:06 10° ESE
Cosmos 2221 Rocket 3.9 05:31:30 10° N 05:35:59 67° E 05:40:26 10° SSE
Lacrosse 5 rocket 1.7 05:35:26 34° W 05:37:10 54° NW 05:41:45 10° NE
Okean-O 2.5 05:34:05 10° N 05:38:33 78° WNW 05:42:58 10° SSW
Meteor 2-3 Rocket 4.0 05:37:19 10° SW 05:42:47 44° WNW 05:48:14 10° N
Meteor 1-10 Rocket 4.3 05:39:07 10° N 05:45:05 86° W 05:51:01 10° S
Atlas Centaur 2 4.5 05:41:25 13° WSW 05:46:38 24° SSW 05:53:03 10° SSE
Cosmos 1441 Rocket 3.7 05:43:30 10° N 05:47:15 59° ENE 05:50:57 10° SSE
Cosmos 1703 Rocket 3.6 05:43:25 10° NNW 05:47:43 56° W 05:51:57 10° S
Cosmos 1606 2.7 05:44:55 13° NNW 05:48:14 58° W 05:51:59 10° S
USA 267 4.4 05:42:46 10° ENE 05:48:24 32° NNE 05:53:31 12° NW
Cosmos 1869 Rocket 3.4 05:49:13 10° SSW 05:53:32 70° W 05:57:58 10° N
Cosmos 1992 Rocket 4.4 05:48:49 10° SW 05:53:40 38° WNW 05:58:33 10° N
SL-16 R/B 3.2 05:53:33 21° W 05:55:34 26° NW 06:00:15 10° N
Cosmos 1777 Rocket 4.3 05:53:03 10° NNW 05:58:16 67° ENE 06:03:26 10° SSE
Intercosmos 25 3.4 05:56:28 13° NNW 05:59:12 46° W 06:03:21 10° S
Cosmos 1603 3.7 05:54:35 10° SW 06:00:09 60° WNW 06:05:48 10° NNE
Cosmos 1782 3.1 05:57:05 10° NNW 06:00:51 43° W 06:04:36 10° SSW
NOAA 6 4.3 06:00:52 10° N 06:05:43 44° WNW 06:10:33 10° SW
Cosmos 1900 4.4 06:02:58 10° SW 06:08:03 60° NW 06:13:11 10° NNE
Cosmos 1891 Rocket 4.4 06:02:10 10° N 06:08:15 85° W 06:14:21 10° S
NOSS 3-1 (C) 4.3 06:01:27 11° NW 06:08:36 56° WSW 06:16:48 10° SSE
Cosmos 1408 3.4 06:05:59 10° SW 06:09:17 29° WNW 06:12:36 10° NNW
CZ-2C R/B 2.4 06:04:38 10° N 06:09:50 78° WNW 06:14:54 10° SSW
COSMO-SKYMED 1 3.3 06:05:58 10° SSW 06:09:52 32° W 06:13:48 10° NNW
Cosmos 405 Rocket 3.0 06:14:49 10° NNW 06:18:20 42° W 06:21:53 10° SSW
PSLV R/B 3.5 06:16:11 12° WSW 06:18:57 58° S 06:22:06 10° E
ATLAS 2AS CENTAUR R/B 4.1 06:12:04 10° NNW 06:19:30 39° NE 06:26:29 10° ESE
Cosmos 2369 Rocket 2.2 06:13:58 10° NNW 06:19:30 65° WSW 06:25:01 10° S
Ariane Rocket 4.0 06:14:54 10° NNE 06:19:51 52° E 06:24:46 10° S
PAYLOAD A 4.4 06:17:31 10° N 06:22:28 44° WNW 06:27:32 10° SW
SL-8 R/B 3.7 06:18:21 10° WSW 06:23:08 79° NNW 06:27:56 10° ENE
Cosmos 968 Rocket 4.3 06:20:34 10° NW 06:25:08 31° W 06:29:41 10° SSW
Cosmos 1674 Rocket 4.3 06:21:33 10° N 06:25:48 55° E 06:30:02 10° SSE
IDEFIX/ARIANE 42P 2.9 06:22:49 10° N 06:27:40 42° WNW 06:32:31 10° SW
Thor Agena Rocket 3.5 06:23:01 10° S 06:28:04 66° WSW 06:33:07 10° NNW
Cosmos 2034 Rocket 4.0 06:22:16 10° NNW 06:28:31 70° W 06:34:38 10° S
NOSS 3-1 (A) 4.4 06:25:42 10° NW 06:33:08 53° WSW 06:41:17 10° S
Cosmos 1862 3.7 06:31:13 10° SSW 06:34:56 39° WNW 06:38:41 10° N
Lacrosse 4 Rocket 2.3 06:32:36 10° SSW 06:36:54 58° ESE 06:41:07 10° NE
IRAS Rocket 4.2 06:36:33 10° NNE 06:42:04 85° WNW 06:47:33 10° SSW
